Location: Boiro
(42.6475°N, 8.8834°W)
Time: 15:24:50
(UTC+01:00)

Vanguard 3 - Pass Details

Date: 08 December 2021
Orbit: 508 x 3260 km, 33.3° (Epoch: 20 January)

Event Time Altitude Azimuth Distance (km) Brightness Sun altitude
Rises 11:22:41 0° 278° (W) 6,769 11.5 18.5°
Reaches altitude 10° 11:30:23 10° 260° (W) 5,224 11.1 19.2°
Maximum altitude 11:37:08 15° 232° (SW) 4,222 11.0 19.8°
Drops below altitude 10° 11:42:37 10° 203° (SSW) 4,038 11.4 20.3°
Sets 11:47:14 0° 180° (S) 4,483 12.1 20.6°
